{"data":{"norad_id":64261,"intl_designator":"2025-120F","name":"STARLINK-34297","alt_names":[],"object_type":"PAYLOAD","status":"ACTIVE","operator":null,"country":"US","launch_date":"2025-06-04","launch_site_code":"AFWTR","launch_vehicle":null,"mission":null,"orbit_class":"UNKNOWN","rcs_meters":null,"size_class":null,"mass_kg":null,"dimensions":null,"purposes":["comms"],"wikipedia_slug":null,"has_3d_model":false,"image_url":null,"decayed_at":null,"tle_current":{"epoch":"2026-05-25T05:05:45.779424Z","epoch_age_seconds":52608,"freshness":"FRESH","line1":"1 64261U 25120F   26145.21233541 -.00374683  00000+0 -11545-1 0  9997","line2":"2 64261  53.1594 119.0187 0001362  90.2264 269.8895 15.34651955 55551","mean_motion":15.34651955,"eccentricity":0.0001362,"inclination_deg":53.1594,"raan_deg":119.0187,"arg_perigee_deg":90.2264,"mean_anomaly_deg":269.8895,"bstar":-0.011545,"rev_number":5555,"period_min":93.832350410683,"perigee_km":461.02285884768,"apogee_km":462.88609976664,"semimajor_km":6840.0914793072,"source":"CELESTRAK","updated_at":"2026-05-25T13:38:20.357854Z"}}}